Location: Saratoga Springs
(43.0831°N, 73.7850°W)
Time: 05:08:09
(UTC-04:00)

Vanguard 2 - Pass Details

Date: 26 April 2024
Orbit: 553 x 2914 km, 32.9° (Epoch: 17 May)

Event Time Altitude Azimuth Distance (km) Brightness Sun altitude
Rises 08:57:12 0° 272° (W) 6,764 11.8 31.9°
Reaches altitude 10° 09:07:32 10° 244° (WSW) 5,553 11.6 33.8°
Maximum altitude 09:10:55 11° 232° (SW) 5,338 11.6 34.4°
Drops below altitude 10° 09:14:09 10° 220° (SW) 5,251 11.6 34.9°
Sets 09:22:49 0° 188° (S) 5,659 12.0 36.5°
